This is the latest recevied weather packets stored in our database for station/object DJ2RF. If no packets are shown the sender has not sent any weather packets the latest 10 day(s).
| Time | Temp. | Humidity | Pressure | Rain* | Wind** | Luminosity | Snow |
|---|---|---|---|---|---|---|---|
| 1777794343 | 14.44° C | 63% | 1017.5 hPa | 0 mm | - | - | - |
| 1777793845 | 13.89° C | 65% | 1017.5 hPa | 0 mm | - | - | - |
| 1777793326 | 13.33° C | 67% | 1017.7 hPa | 0 mm | - | - | - |
| 1777792751 | 12.78° C | 69% | 1017.7 hPa | 0 mm | - | - | - |
| 1777792274 | 12.22° C | 69% | 1017.7 hPa | 0 mm | - | - | - |
| 1777791719 | 12.22° C | 69% | 1017.6 hPa | 0 mm | - | - | - |
| 1777791131 | 11.67° C | 69% | 1017.7 hPa | 0 mm | - | - | - |
| 1777790049 | 10.56° C | 72% | 1017.8 hPa | 0 mm | - | - | - |
| 1777789482 | 10.56° C | 71% | 1017.7 hPa | 0 mm | - | - | - |
| 1777788989 | 10.56° C | 72% | 1017.8 hPa | 0 mm | - | - | - |
| 1777788392 | 10° C | 73% | 1017.8 hPa | 0 mm | - | - | - |
| 1777787799 | 10° C | 73% | 1017.8 hPa | 0 mm | - | - | - |
| 1777787272 | 9.44° C | 72% | 1017.6 hPa | 0 mm | - | - | - |
| 1777786794 | 9.44° C | 74% | 1017.6 hPa | 0 mm | - | - | - |
| 1777786289 | 9.44° C | 74% | 1017.7 hPa | 0 mm | - | - | - |
| 1777785770 | 8.89° C | 75% | 1017.5 hPa | 0 mm | - | - | - |
| 1777785278 | 8.33° C | 74% | 1017.6 hPa | 0 mm | - | - | - |
| 1777784687 | 8.33° C | 73% | 1017.6 hPa | 0 mm | - | - | - |
| 1777784191 | 8.33° C | 73% | 1017.5 hPa | 0 mm | - | - | - |
| 1777783666 | 8.33° C | 73% | 1017.5 hPa | 0 mm | - | - | - |
| 1777783104 | 7.78° C | 74% | 1017.6 hPa | 0 mm | - | - | - |
| 1777782568 | 7.78° C | 73% | 1017.6 hPa | 0 mm | - | - | - |
| 1777782042 | 7.78° C | 72% | 1017.7 hPa | 0 mm | - | - | - |
| 1777781456 | 7.78° C | 72% | 1017.7 hPa | 0 mm | - | - | - |
| 1777780894 | 7.78° C | 72% | 1017.7 hPa | 0 mm | - | - | - |
* Rain latest hour (hover to see other rain measurements)
** Current wind speed in m/s (hover to see current wind gust speed)